| time (UTC) | temp F | wind direction | speed MPH | gust MPH | rain 1hr in | rain 24hr in | rain mn in | humidity % | barometer mb |
| 20260510111822 | 64 | 110 | 7.0 | 0.0 | 0.00 | 0.00 | 0.00 | 45 | |
| 20260510102121 | 63 | 100 | 9.0 | 0.0 | 0.00 | 0.00 | 0.00 | 48 | |
| 20260510091818 | 59 | 80 | 7.0 | 0.0 | 0.00 | 0.00 | 0.00 | 54 | |
| 20260510081820 | 55 | 110 | 9.0 | 0.0 | 0.00 | 0.00 | 0.00 | 58 | |
| 20260510071920 | 54 | 120 | 7.0 | 0.0 | 0.00 | 0.00 | 0.00 | 62 | |
| 20260510061822 | 50 | 120 | 9.0 | 0.0 | 0.00 | 0.00 | 0.00 | 71 | |
| 20260510051820 | 46 | 70 | 5.0 | 0.0 | 0.00 | 0.00 | 0.00 | 75 | |
| 20260510042119 | 45 | 100 | 5.0 | 0.0 | 0.00 | 0.00 | 0.00 | 81 | |
| 20260510031818 | 45 | 100 | 7.0 | 0.0 | 0.00 | 0.00 | 0.00 | 81 | |
| 20260510021820 | 45 | 50 | 2.0 | 0.0 | 0.00 | 0.00 | 0.00 | 87 | |
| 20260510012031 | 46 | 110 | 2.0 | 0.0 | 0.00 | 0.00 | 0.00 | 81 | |
| 20260510001821 | 48 | 140 | 5.0 | 0.0 | 0.00 | 0.00 | 0.00 | 76 | |
| 20260509231817 | 48 | 50 | 5.0 | 0.0 | 0.00 | 0.00 | 0.00 | 76 | |
| 20260509222121 | 48 | 60 | 9.0 | 0.0 | 0.00 | 0.00 | 0.00 | 81 | |
| 20260509211819 | 50 | 60 | 12.0 | 0.0 | 0.00 | 0.00 | 0.00 | 76 | |
| 20260509201818 | 54 | 60 | 12.0 | 0.0 | 0.00 | 0.00 | 0.00 | 66 | |
| 20260509191919 | 55 | 60 | 12.0 | 0.0 | 0.00 | 0.00 | 0.00 | 66 | |
| 20260509181819 | 59 | 60 | 9.0 | 0.0 | 0.00 | 0.00 | 0.00 | 58 | |
| 20260509171819 | 61 | 40 | 12.0 | 0.0 | 0.00 | 0.00 | 0.00 | 55 | |
| 20260509162119 | 64 | 50 | 12.0 | 0.0 | 0.00 | 0.00 | 0.00 | 48 | |
| 20260509151818 | 63 | 40 | 7.0 | 0.0 | 0.00 | 0.00 | 0.00 | 48 | |
| 20260509141819 | 63 | 60 | 9.0 | 0.0 | 0.00 | 0.00 | 0.00 | 48 | |
| 20260509131918 | 64 | 50 | 5.0 | 0.0 | 0.00 | 0.00 | 0.00 | 48 | |
| 20260509121820 | 61 | 50 | 5.0 | 0.0 | 0.00 | 0.00 | 0.00 | 51 |